Wind_Speed
24 24 25 25 26 26 26 26 26 26 26 26 27 27 28 29 29 29 29 29 30 30 29 30 31 31 31 31 32 31 31 32 33 34 35 36 38 38 38 37 37 36 36 36 36 36 36 37 38 38 37 38 39 39 38 38 38 38 36 35 34 34 34 32 29 25 25 27 29 30 32 32 33 36 38 39 43 47 49 50 49 48 48 50 52
25 26 26 26 27 29 28 28 27 27 27 27 28 28 29 29 29 29 29 30 31 30 30 30 31 32 32 33 33 32 33 33 34 35 36 37 38 39 38 38 37 37 36 37 36 36 36 37 38 38 37 37 38 38 38 38 38 38 37 35 34 35 35 33 31 27 24 25 28 30 32 33 32 33 35 37 39 44 47 50 51 50 49 49 51
27 27 26 26 27 30 30 28 28 29 29 28 29 29 29 29 28 28 29 30 31 30 31 31 32 33 33 33 33 33 33 34 35 36 37 38 38 38 38 38 38 37 37 37 37 36 36 37 38 38 37 37 37 37 37 37 38 38 37 36 35 35 35 34 32 29 26 24 27 29 31 33 33 33 34 35 37 40 44 48 52 52 51 50 50
28 27 27 27 28 30 30 29 30 31 30 29 30 30 30 30 28 28 30 32 32 32 32 32 33 34 33 33 33 33 34 35 36 37 37 38 39 39 39 39 38 38 38 37 37 37 37 38 38 37 37 36 37 37 37 37 38 38 38 38 37 35 35 35 33 31 29 27 27 29 31 32 33 34 35 35 36 38 41 44 50 53 53 51 50
28 28 28 29 29 29 30 31 31 32 31 30 31 31 30 29 27 27 31 34 33 33 33 33 34 34 34 34 33 33 35 36 36 37 38 38 39 40 40 40 39 39 38 37 37 37 38 38 37 36 36 35 36 36 36 37 38 40 40 40 38 37 36 35 34 32 31 31 30 30 31 32 33 35 36 35 35 37 39 41 46 51 53 54 52
29 30 29 29 29 30 31 32 33 33 32 31 32 32 30 28 27 29 33 34 34 33 34 34 34 35 35 34 34 35 36 36 36 37 38 39 40 41 41 41 41 39 38 37 37 38 38 37 36 35 35 35 36 36 37 38 40 41 41 40 39 38 37 35 34 33 32 32 32 31 31 33 34 36 37 37 37 37 38 39 43 47 51 54 54
31 32 31 30 30 31 32 33 34 35 34 33 33 32 29 27 29 32 33 33 33 34 34 35 35 36 36 35 35 35 36 37 39 41 42 42 41 41 41 41 40 39 37 36 37 37 37 36 35 35 36 36 36 37 37 39 41 42 42 40 39 39 37 36 34 34 33 33 33 33 33 33 35 36 37 38 37 38 39 38 40 45 49 51 54
32 32 33 32 32 32 33 34 35 35 35 34 34 31 30 29 31 34 33 33 34 35 35 35 36 36 37 36 36 37 38 39 40 40 39 38 38 39 40 39 38 37 36 35 36 36 35 34 34 35 37 37 37 38 39 40 42 42 42 41 40 39 38 36 35 34 34 33 33 34 35 35 36 36 37 37 36 37 39 38 38 42 47 49 52
35 34 34 34 33 33 33 35 36 36 35 35 33 32 31 32 33 34 33 34 35 35 36 36 36 37 37 38 38 38 37 38 38 38 37 37 39 42 40 38 35 34 34 34 34 33 33 34 36 37 37 38 39 39 40 42 43 43 42 41 41 39 38 37 36 35 34 34 34 36 36 36 37 36 36 36 36 36 38 39 39 41 45 48 50
37 37 36 36 35 35 35 35 36 36 34 34 33 33 33 34 34 33 33 34 35 36 36 36 36 37 37 37 37 38 40 40 40 41 40 39 42 44 40 36 33 31 32 33 32 32 33 35 38 39 39 39 40 41 42 43 44 44 43 42 41 39 38 37 37 36 34 34 35 37 37 38 38 37 35 35 36 36 37 39 40 41 44 47 49
39 39 38 38 39 37 35 35 36 35 33 33 35 35 34 34 35 34 34 35 35 36 37 38 38 38 36 35 35 39 43 43 42 42 39 36 39 43 42 37 32 30 31 32 31 32 33 36 39 40 40 40 41 42 43 44 44 44 44 42 40 39 38 38 38 37 35 35 36 38 39 38 38 38 37 36 36 36 36 37 40 42 43 45 48
41 41 42 43 42 39 36 36 35 34 33 34 35 35 34 35 36 36 35 35 37 38 39 39 40 38 35 33 34 38 43 43 42 39 35 34 38 43 44 40 34 30 30 30 30 31 33 36 39 41 42 42 42 43 44 44 44 44 44 42 39 39 39 39 38 37 36 36 37 39 40 39 38 39 39 38 37 36 35 35 38 41 43 45 47
43 45 46 46 44 39 36 35 34 33 32 34 35 34 33 34 35 36 36 37 38 40 40 41 41 39 36 35 36 39 41 41 40 37 36 39 42 43 42 40 35 30 29 29 29 31 33 35 38 41 42 42 42 43 44 44 44 45 44 42 39 38 39 39 39 37 37 37 37 39 40 40 39 40 41 41 39 38 35 33 35 40 43 45 47
46 46 45 45 44 40 34 32 33 33 32 34 35 34 32 34 36 37 37 38 40 41 41 42 41 40 39 39 40 40 40 40 40 39 40 43 44 42 40 37 33 29 29 30 30 32 35 36 38 40 42 42 43 44 44 43 43 44 44 41 39 39 39 40 39 37 37 38 38 38 40 40 40 41 43 43 42 41 37 30 31 38 42 44 47
47 43 39 40 43 41 36 33 34 33 34 35 34 33 33 35 37 37 38 40 41 42 42 42 42 42 42 41 41 42 43 43 43 43 44 44 44 43 39 34 32 32 35 36 35 35 38 40 39 39 41 43 44 45 44 43 43 43 43 41 38 38 39 39 38 37 37 38 38 39 39 40 41 42 44 45 44 43 39 30 27 35 42 44 46
49 45 39 39 42 44 44 41 37 34 33 33 32 32 34 36 37 38 39 41 42 42 43 43 43 44 43 42 42 45 47 47 46 46 47 47 46 45 39 34 34 37 41 42 40 39 43 44 41 41 42 44 46 46 44 43 42 42 42 40 38 38 39 39 38 37 38 38 38 39 40 40 41 42 44 46 46 45 40 31 25 32 40 43 46
53 48 40 38 40 43 44 44 39 35 34 33 32 34 36 37 37 39 40 41 42 42 43 43 44 44 43 43 45 47 50 51 50 49 49 50 49 47 43 38 39 41 44 44 43 45 48 45 41 41 43 45 47 46 44 42 42 42 41 39 37 37 37 37 37 37 38 39 39 39 40 40 41 42 44 46 48 47 40 31 25 28 37 43 46
49 46 41 41 42 42 42 41 37 34 34 34 35 38 38 38 39 40 40 41 42 42 42 42 42 42 43 45 47 49 52 53 54 52 51 51 52 50 47 44 43 45 45 44 45 47 47 43 40 41 42 46 47 45 42 41 41 42 41 38 36 35 36 36 37 37 38 39 39 40 40 40 40 42 44 46 48 48 43 35 28 27 33 42 46
40 41 46 49 50 50 50 48 42 36 33 34 36 38 39 40 40 40 40 40 41 41 42 42 41 42 43 46 49 51 53 54 54 53 52 52 52 52 50 49 49 47 46 45 46 46 43 40 39 39 42 46 46 43 40 40 41 41 40 37 35 34 34 35 36 37 37 37 38 39 39 39 40 41 44 46 47 48 46 40 33 29 31 39 45
39 39 42 44 45 45 45 46 42 35 30 30 34 38 40 41 40 39 39 40 40 41 41 42 41 42 45 48 51 53 54 54 54 53 52 52 53 52 52 52 51 48 47 46 45 42 40 39 38 38 41 45 45 41 39 40 40 40 38 36 34 33 34 34 35 36 35 35 36 37 36 36 38 39 41 43 44 46 47 44 38 33 32 36 42
39 37 37 40 42 40 37 34 30 26 24 27 32 37 41 42 41 39 38 39 40 40 41 42 43 45 48 50 52 53 54 54 53 53 53 52 52 52 53 52 51 48 48 48 44 40 39 39 38 38 42 45 43 40 40 40 39 39 37 35 34 33 33 33 34 35 34 33 33 34 33 33 35 37 40 41 41 42 45 44 40 35 32 33 37
38 38 39 44 48 44 33 23 19 19 21 26 30 35 39 40 39 37 37 39 40 40 41 44 46 49 51 52 52 53 53 53 52 52 52 52 52 53 53 52 52 50 48 46 44 42 41 40 39 41 44 44 42 39 39 40 38 37 36 35 34 33 32 32 33 33 33 33 32 31 31 32 33 36 39 40 38 39 42 43 40 34 31 31 33
37 37 38 43 47 39 26 18 16 19 20 24 30 34 37 37 36 36 37 39 40 41 44 47 49 51 52 52 52 52 52 52 51 51 51 52 53 54 54 53 52 48 44 43 43 43 41 39 39 41 44 43 40 38 39 38 37 36 36 34 33 32 31 31 32 32 31 31 30 29 29 31 32 35 38 38 36 36 39 40 36 31 28 27 29
39 37 36 40 44 37 27 22 24 26 26 30 32 33 34 36 36 37 38 39 40 43 46 48 49 50 51 51 52 52 51 51 51 50 51 53 53 53 54 52 47 41 41 43 44 42 39 37 37 40 43 43 41 41 40 38 36 36 35 33 32 31 30 30 30 30 30 30 29 27 28 31 32 34 37 38 35 33 35 35 30 26 25 24 25
41 39 34 38 42 37 33 32 32 33 35 37 34 32 35 37 38 38 38 39 42 46 48 48 49 51 52 52 52 52 51 50 51 51 52 53 52 51 51 47 41 40 43 45 44 41 39 37 38 41 42 43 43 43 41 37 35 35 34 32 31 30 29 29 29 29 29 28 27 27 27 30 32 34 36 38 35 31 31 30 24 22 21 19 20
39 38 34 38 41 35 34 37 38 38 40 39 36 37 38 38 38 38 38 40 45 48 49 50 52 52 52 52 51 50 50 50 51 52 52 51 49 48 45 41 39 41 44 44 44 42 40 39 39 40 41 41 41 41 40 36 34 34 33 31 30 29 28 28 28 28 27 27 26 26 27 29 31 33 36 38 36 32 30 27 20 17 17 16 18
37 35 32 35 38 37 40 42 44 45 45 44 42 42 39 36 35 36 39 44 48 49 50 52 52 51 50 50 49 49 50 51 51 51 50 48 45 41 39 38 40 42 43 43 43 42 41 40 39 38 39 40 39 38 36 34 33 33 32 30 29 28 27 27 27 26 26 26 25 26 27 28 30 32 35 37 36 33 29 25 18 14 14 14 17
36 33 31 33 37 42 45 46 45 45 44 42 40 37 35 34 37 41 45 49 50 50 50 50 49 49 49 49 48 49 50 50 51 50 47 44 40 37 35 36 39 40 41 41 41 40 40 39 38 38 38 38 38 36 33 32 32 32 31 29 28 27 26 26 26 25 25 25 24 26 27 28 29 32 34 36 36 33 28 23 19 15 13 14 17
38 37 37 38 40 44 46 46 43 40 37 35 34 34 37 41 46 48 50 50 49 49 48 47 47 48 48 48 48 49 49 49 48 46 43 40 37 35 35 36 38 38 39 39 38 38 38 38 37 37 36 36 36 34 31 31 31 31 29 27 26 26 25 25 25 25 25 24 24 25 26 27 29 31 32 34 36 34 27 20 18 16 15 15 17
40 39 38 40 43 46 46 42 39 37 36 36 39 42 46 49 49 48 47 47 46 45 45 45 46 47 47 48 48 48 49 48 45 42 40 37 36 36 36 37 38 38 38 37 36 37 37 37 36 35 34 34 33 31 30 31 31 30 27 26 25 25 25 24 24 24 24 24 23 24 26 26 27 29 31 32 34 34 28 18 16 18 18 17 18
41 38 37 41 45 47 45 40 38 40 42 45 48 50 50 49 47 46 45 44 44 45 45 45 46 46 47 48 48 48 48 45 42 39 37 37 37 38 38 38 38 38 37 36 36 36 36 35 35 33 32 32 32 30 30 31 30 28 26 24 24 24 24 24 23 23 23 23 23 24 25 25 26 27 29 30 31 32 28 18 11 15 16 15 18
37 35 37 40 42 43 43 42 44 47 49 51 52 52 51 49 47 45 44 44 45 46 46 45 46 47 47 47 48 47 45 41 39 37 37 37 39 39 38 38 37 37 37 36 35 35 34 34 33 32 30 30 30 30 29 29 28 26 24 24 23 23 23 23 23 22 22 23 23 23 24 25 25 26 28 29 29 30 29 21 11 10 10 8 16
34 36 38 41 42 44 46 48 50 51 52 53 54 53 51 48 46 45 45 46 46 46 46 46 46 47 47 47 46 44 40 38 37 37 37 38 39 39 37 36 36 37 36 35 34 34 33 32 31 29 27 26 27 27 27 26 24 23 23 23 23 23 23 23 22 22 22 22 22 22 22 23 24 25 27 28 28 28 28 24 15 11 10 3 14
40 43 44 45 47 48 49 49 49 49 51 52 52 50 49 47 46 45 45 46 46 46 47 47 47 47 46 45 43 40 37 37 37 37 38 39 39 37 36 35 35 36 36 34 33 32 31 30 29 27 25 24 25 26 25 24 23 23 23 23 23 22 22 23 22 21 21 21 21 21 21 21 22 24 25 27 27 27 27 26 20 14 11 4 10
46 46 47 47 47 46 46 46 47 48 49 49 48 47 46 45 44 43 44 45 46 47 47 47 47 46 45 42 39 37 36 36 36 37 38 38 38 36 35 34 34 34 34 33 32 31 30 29 28 27 26 26 26 25 24 24 23 23 24 23 23 22 21 22 21 21 21 20 20 20 20 20 21 22 23 25 26 26 25 26 23 17 11 5 5
45 46 46 47 46 45 46 46 47 47 46 44 43 42 41 42 42 43 45 45 46 46 47 47 47 45 42 40 38 37 36 36 36 37 38 38 37 35 34 33 33 33 33 32 31 30 29 29 28 27 27 26 25 24 22 21 20 21 22 22 21 20 20 20 20 20 20 19 19 18 18 18 19 20 21 23 25 25 23 23 24 20 14 8 1
46 47 47 46 46 46 46 47 46 45 42 39 38 39 41 42 44 45 46 46 46 47 47 47 45 43 40 38 37 37 36 36 36 37 37 37 36 35 33 32 32 32 32 31 31 30 29 28 28 27 26 24 22 21 20 19 18 18 19 20 19 19 18 19 19 19 18 18 17 17 17 17 17 19 20 21 23 25 23 22 22 22 19 12 3
47 48 48 47 46 45 46 46 45 43 40 38 41 45 47 47 47 47 47 47 48 48 47 46 43 41 39 38 37 36 36 36 36 36 36 35 35 33 32 32 31 31 30 29 29 29 28 27 26 25 24 22 19 18 17 17 16 16 17 18 18 17 17 17 18 18 17 17 16 16 16 16 16 17 19 20 21 23 23 22 20 20 20 17 10
46 47 48 47 45 44 44 45 45 44 43 45 49 52 52 51 51 50 49 49 49 48 46 44 41 40 38 37 36 35 35 36 36 35 35 34 33 32 31 31 30 29 28 27 26 25 25 24 23 22 22 20 18 17 17 17 16 16 16 17 17 16 16 16 16 17 17 17 16 15 15 16 16 17 17 18 19 21 22 22 20 18 18 19 16
44 45 46 46 44 43 43 45 46 47 48 51 53 53 52 51 51 50 50 49 48 46 43 41 39 38 36 35 34 34 35 35 34 34 33 32 31 31 30 30 29 28 26 25 23 22 21 21 21 21 20 19 19 18 18 18 17 17 17 17 17 17 17 17 16 17 17 17 16 16 16 16 16 17 17 18 18 19 20 21 20 18 17 17 17
46 45 46 45 43 42 42 44 46 47 49 50 50 50 49 49 49 49 48 46 44 42 40 38 37 36 34 34 34 35 35 34 34 33 32 31 31 30 29 29 28 27 26 25 24 23 22 21 21 21 21 20 20 21 21 21 20 19 18 18 18 18 18 18 17 17 17 17 17 17 17 17 17 17 17 17 18 18 19 20 19 18 16 15 15
46 46 47 45 43 42 43 44 45 47 47 47 47 47 47 47 46 45 44 42 40 39 37 36 35 34 34 34 35 35 35 34 33 31 31 30 30 30 29 28 27 27 26 25 25 24 23 22 21 21 21 21 21 20 20 21 21 21 20 20 19 19 19 19 18 17 17 18 17 17 18 17 17 17 17 17 17 18 18 18 19 18 16 14 13
45 46 46 45 44 45 46 46 46 46 46 45 45 45 45 44 43 41 40 38 37 36 34 34 34 34 35 35 35 34 34 33 32 31 30 30 30 29 28 28 27 26 25 25 25 25 24 22 22 21 21 20 20 19 18 18 19 20 20 20 20 19 19 19 18 17 17 18 18 18 18 18 18 18 17 17 17 18 18 17 18 18 17 15 13
46 45 44 44 45 46 46 45 44 44 44 44 43 42 41 39 38 36 35 34 33 33 33 34 34 35 35 35 34 34 33 33 32 31 30 30 29 29 28 27 26 25 25 25 24 24 23 23 22 22 21 20 20 19 18 18 17 18 18 19 19 19 19 19 19 18 18 18 18 19 19 19 19 19 18 18 18 18 18 18 17 17 17 16 14
46 45 44 44 44 44 43 43 43 43 43 41 39 36 34 33 32 32 31 31 31 32 33 33 34 34 35 34 33 33 33 32 32 31 30 29 29 28 27 26 25 25 25 25 24 24 23 23 23 23 22 21 20 20 20 19 18 18 18 18 19 19 19 19 19 19 19 19 19 20 20 20 20 20 19 19 19 19 19 18 17 17 16 16 15
45 44 43 42 42 41 41 41 41 40 38 35 32 31 30 29 30 30 30 31 31 32 33 33 34 34 34 33 32 32 32 32 31 30 29 27 27 27 26 25 25 25 25 24 24 23 23 23 23 23 23 23 22 22 21 21 21 20 20 20 20 20 20 20 20 20 21 21 21 21 21 21 21 20 21 20 20 19 19 19 19 17 17 16 16
42 40 40 39 39 38 38 37 35 33 31 29 29 29 29 29 30 30 30 31 31 32 32 33 33 33 32 32 31 30 30 31 30 29 27 25 25 25 25 24 24 24 24 24 24 24 23 23 24 24 24 24 24 24 23 23 23 23 23 22 22 22 22 22 22 22 23 23 23 22 23 22 22 21 21 21 20 20 20 20 20 19 18 17 16
37 37 36 36 35 34 33 31 29 28 28 28 29 29 30 30 30 30 30 31 31 31 32 32 31 31 31 30 29 28 29 29 29 28 26 24 23 23 23 23 23 24 24 24 25 24 24 25 25 25 25 25 26 26 25 25 25 25 25 25 25 24 24 24 24 25 25 25 25 24 24 24 23 23 22 22 21 21 21 21 20 20 19 18 17
35 34 33 33 32 30 29 28 27 27 28 29 29 30 30 30 30 30 31 31 31 32 32 32 31 30 29 28 27 27 27 27 27 26 24 22 22 22 23 23 23 24 24 25 25 25 25 25 25 25 26 26 26 26 27 27 27 27 27 27 27 27 26 26 26 26 26 26 27 26 26 25 25 24 24 23 22 22 21 21 21 21 20 20 19
33 32 31 30 29 29 28 28 27 28 28 29 29 29 30 30 30 31 32 32 32 32 32 31 30 30 29 29 28 27 26 25 25 25 23 22 21 22 23 23 24 25 25 25 26 25 25 25 26 26 27 27 27 27 28 28 28 28 28 28 28 28 28 27 27 26 26 26 26 26 26 26 25 25 24 24 23 23 22 22 22 22 21 21 20
31 31 30 29 28 28 27 27 27 27 28 28 29 29 30 30 31 31 32 33 33 32 32 31 30 30 30 30 30 28 27 27 26 25 25 24 23 24 24 25 25 25 25 26 26 26 25 26 26 27 27 27 27 27 27 26 26 27 27 26 27 27 27 27 27 26 25 24 24 24 24 24 24 24 24 24 24 23 23 23 22 23 23 22 22
Wind_Direction
286 286 287 288 289 290 290 291 292 292 292 293 294 294 293 292 293 292 293 296 299 302 305 306 305 305 306 307 308 309 310 310 310 311 312 314 314 315 316 316 317 318 319 319 320 320 319 318 319 319 319 319 318 318 318 319 319 317 314 310 307 305 304 304 300 295 291 287 284 282 280 276 272 270 268 266 265 263 259 253 247 243 241 240 239
283 283 284 287 288 289 290 292 292 291 291 292 291 291 291 291 292 291 292 296 300 302 304 304 304 304 306 308 310 312 312 311 311 311 312 312 312 314 315 316 316 317 317 318 319 319 319 318 318 318 318 317 317 317 317 318 318 316 312 308 306 304 303 303 300 297 294 288 284 282 280 279 277 273 270 266 264 262 262 259 252 245 241 240 239
281 281 283 284 284 285 289 291 290 289 289 290 290 289 289 290 290 290 292 296 300 301 302 303 303 304 307 310 311 311 311 310 310 309 309 310 311 313 314 314 315 315 317 318 318 318 318 318 318 318 317 316 315 315 316 317 316 314 310 306 304 304 303 302 300 298 295 290 284 282 281 282 282 279 275 271 267 263 260 259 257 251 243 239 239
282 283 285 284 282 283 287 289 288 287 288 288 288 287 286 288 287 288 292 296 298 300 301 302 303 305 308 310 310 309 308 307 307 307 308 309 310 311 312 313 313 315 316 317 317 318 318 318 317 317 315 314 314 314 314 315 314 312 309 306 305 305 303 302 301 299 296 293 289 286 283 283 283 281 279 275 272 268 262 258 257 255 249 241 238
284 282 281 281 281 280 283 286 286 285 286 286 285 284 285 285 283 286 292 294 296 298 300 302 304 307 309 309 308 308 306 305 305 307 308 309 309 310 310 311 312 313 314 315 316 316 317 316 316 315 313 312 311 311 312 313 313 311 308 306 305 305 304 303 302 300 298 296 294 291 288 286 284 283 281 279 274 271 267 261 257 255 252 246 239
286 281 278 279 279 279 281 284 283 283 284 284 282 283 285 285 284 288 292 293 295 297 299 302 306 307 307 307 308 307 305 306 308 309 309 308 308 309 309 309 310 311 311 312 313 315 316 315 315 313 311 309 309 308 309 310 311 310 308 305 305 305 304 302 301 300 299 297 296 294 292 290 288 286 285 283 278 273 268 263 259 255 252 248 242
288 283 282 281 279 279 281 282 281 282 283 281 280 282 284 286 288 290 291 292 295 297 300 304 306 306 307 307 307 306 306 308 310 309 308 307 306 307 307 307 308 309 309 309 311 314 315 315 313 311 309 307 306 306 307 310 311 310 307 304 304 304 303 301 300 300 299 298 297 295 294 292 290 289 288 287 283 277 270 263 258 255 252 249 244
289 284 282 281 280 279 280 280 279 279 280 279 279 281 284 286 288 288 289 292 295 298 302 305 306 305 306 307 307 307 310 313 315 315 315 314 313 312 309 307 307 307 307 307 310 312 314 314 312 309 307 305 304 305 307 310 311 308 306 304 303 303 302 301 300 300 299 299 298 296 295 295 294 293 292 290 287 283 276 266 256 252 250 248 245
289 285 282 280 278 277 275 275 276 276 277 278 279 281 284 284 285 286 288 292 295 299 303 304 304 304 305 306 308 311 316 319 321 321 320 319 319 318 313 308 305 305 304 305 308 310 312 312 309 307 307 305 303 303 306 309 309 307 305 303 302 302 302 301 299 298 299 299 298 297 296 297 298 297 296 294 291 288 282 271 259 251 247 245 244
289 286 283 280 276 272 269 270 273 274 276 278 279 281 281 281 283 287 289 293 296 299 301 301 302 303 305 307 309 314 318 320 321 319 317 318 320 321 317 310 304 302 302 304 306 309 311 311 308 306 306 304 302 302 304 307 308 307 305 303 302 302 302 300 298 297 298 299 299 298 298 299 301 300 299 296 294 291 286 276 263 254 246 241 241
288 285 281 277 273 269 266 267 270 273 275 276 278 280 281 282 285 288 291 294 297 299 299 300 301 303 305 305 309 316 319 321 321 318 317 321 325 325 322 315 307 301 300 302 305 309 312 310 306 304 304 303 302 301 303 305 305 305 304 303 302 301 301 299 297 296 296 298 298 298 299 300 302 302 301 298 295 293 290 280 267 257 248 240 236
286 282 278 275 272 268 266 267 268 270 272 274 278 282 283 284 287 289 292 296 298 298 298 299 301 303 302 302 309 316 319 320 320 317 316 321 326 325 321 315 308 301 299 301 306 311 312 309 306 303 302 301 301 301 302 303 304 304 303 302 301 300 300 299 297 296 296 297 299 299 300 302 303 303 302 300 297 296 293 285 272 260 250 241 234
285 279 273 268 265 262 262 265 268 269 271 273 279 283 284 285 287 290 294 297 296 296 297 299 300 301 300 300 306 314 317 320 321 319 316 317 320 321 316 309 305 301 298 300 306 312 314 312 308 302 299 298 299 300 301 301 302 302 302 302 301 300 300 298 297 297 297 298 300 300 301 302 303 303 303 302 300 299 296 288 275 262 252 243 235
285 279 271 264 261 258 261 268 271 273 276 277 281 284 285 286 288 291 294 295 294 295 297 298 299 300 299 300 304 311 318 322 322 320 318 316 319 321 315 305 301 300 297 296 304 313 317 315 310 303 298 297 297 298 299 300 300 301 301 301 301 300 299 298 297 298 299 300 301 301 301 303 304 304 305 305 304 302 300 290 273 262 254 246 237
286 281 272 266 263 259 262 273 277 277 277 278 281 285 285 286 289 291 293 293 292 295 297 298 300 301 300 301 305 311 318 323 323 322 320 319 321 322 316 303 296 300 300 297 299 308 315 314 309 304 299 296 296 297 298 298 298 299 300 300 300 299 298 298 299 301 302 302 303 303 303 305 305 305 306 307 306 305 302 294 272 258 254 247 240
286 280 272 266 260 255 259 271 278 276 275 277 281 284 285 286 288 290 291 291 292 296 298 300 301 303 304 305 307 312 318 322 323 322 320 320 321 321 316 302 294 299 303 299 295 301 310 312 309 305 300 295 295 296 296 296 297 298 299 299 298 298 298 299 301 303 303 304 304 304 305 306 306 307 308 308 307 306 304 297 277 258 251 247 242
285 278 270 264 258 254 260 269 272 270 272 277 282 284 284 285 286 287 288 290 293 296 299 302 304 306 308 308 308 312 317 319 320 320 319 319 319 319 315 305 298 300 302 299 295 299 307 308 305 303 298 294 294 295 295 295 295 297 298 297 297 297 298 300 302 302 303 304 304 304 306 307 308 310 311 310 310 309 306 300 283 261 250 246 242
285 274 266 261 255 253 260 266 266 266 273 281 285 286 284 282 282 284 287 290 293 296 300 303 305 307 308 308 309 311 314 316 317 317 317 317 316 316 314 309 305 304 302 299 297 299 303 304 301 300 296 293 293 294 293 294 295 296 297 296 296 296 297 299 300 301 302 303 304 306 308 310 312 313 314 314 312 310 308 303 290 268 252 246 242
289 278 271 267 260 256 260 265 266 269 279 288 289 286 281 279 280 283 287 290 294 297 300 303 304 305 307 308 308 310 312 312 313 314 315 315 315 315 313 311 310 308 304 301 300 301 302 301 299 297 293 291 292 292 292 292 294 296 297 295 294 295 295 297 299 299 300 302 305 308 310 312 314 316 317 316 312 308 306 304 297 281 260 248 243
294 287 278 271 262 258 265 272 272 273 281 289 288 283 279 278 280 284 287 291 294 297 301 304 305 305 307 308 308 308 309 310 310 312 313 314 313 312 312 311 311 310 308 306 304 303 303 301 298 294 290 289 289 290 290 291 293 296 296 294 292 292 295 298 299 298 299 301 304 307 309 311 313 316 317 316 310 305 303 303 302 291 270 252 245
292 289 279 264 258 264 278 281 274 271 281 287 286 283 280 278 280 284 287 290 294 298 301 303 304 305 307 307 307 307 308 309 310 311 312 311 311 311 311 311 311 312 312 309 305 304 304 301 296 292 289 288 289 289 290 291 293 296 297 294 290 291 295 299 299 298 299 301 303 306 307 309 311 315 317 315 310 304 302 303 304 297 277 258 246
289 290 284 267 260 266 272 265 258 272 289 295 293 288 282 279 281 284 287 291 294 297 299 301 303 304 305 306 306 307 308 309 309 310 310 310 310 312 313 313 315 316 314 307 303 304 305 301 296 292 290 289 290 289 289 291 294 297 298 294 290 291 296 300 299 298 299 300 303 304 305 307 311 315 318 318 313 307 303 304 305 299 283 264 249
291 294 290 272 262 260 252 244 266 288 301 308 304 294 287 284 283 284 287 290 293 296 299 301 301 301 302 304 306 307 307 307 308 308 309 310 312 313 313 315 317 315 306 299 300 304 304 300 296 292 290 290 290 289 291 293 295 297 297 294 290 291 297 300 298 297 298 300 302 303 303 306 312 317 321 322 319 310 305 306 305 298 287 270 252
297 301 292 270 259 254 246 257 288 301 306 312 308 298 290 286 283 284 285 287 291 296 299 300 299 300 303 305 306 306 306 306 308 308 309 311 313 313 313 315 315 306 296 296 301 303 302 299 294 290 289 289 289 290 293 295 296 297 297 293 290 292 297 298 297 297 298 300 301 300 302 307 313 319 323 326 323 313 306 308 306 296 289 276 254
301 306 293 264 254 253 252 262 283 297 304 307 302 294 290 285 281 282 284 286 291 297 300 301 302 303 304 305 305 305 305 306 308 308 310 311 311 311 313 314 307 297 295 298 301 302 301 298 293 290 288 288 288 289 292 295 296 297 295 291 289 293 296 297 296 296 298 299 299 299 302 308 315 321 325 328 329 321 311 310 303 289 287 278 249
303 306 287 257 250 261 271 273 278 287 296 298 294 292 290 284 279 280 283 287 294 298 301 303 303 303 302 302 303 304 305 306 308 308 309 310 309 310 312 309 301 297 300 301 301 300 299 296 293 290 288 287 287 289 292 294 295 295 293 289 288 292 295 295 296 297 298 298 298 298 302 308 315 321 324 329 334 331 319 310 297 279 277 269 241
299 301 285 260 256 273 285 282 279 283 290 293 293 291 287 280 277 281 287 293 297 300 301 301 300 299 300 300 302 304 305 306 307 307 307 307 307 309 308 304 302 303 304 303 302 303 301 298 295 291 289 289 289 290 292 294 293 292 290 287 286 290 292 294 296 298 297 298 298 299 303 308 314 320 324 329 337 339 328 312 294 275 271 261 238
293 292 285 272 268 275 280 279 279 284 289 289 288 285 281 280 285 290 294 297 298 298 298 297 297 298 300 301 302 304 305 305 305 305 305 305 305 306 304 303 305 306 305 304 305 304 302 299 296 292 290 290 292 293 294 292 290 289 287 283 283 286 290 293 297 298 297 296 296 298 302 308 314 320 325 330 338 343 336 316 294 275 267 260 241
293 292 288 282 277 276 275 275 278 284 286 284 283 284 286 289 293 294 295 295 295 294 295 296 298 300 301 302 303 304 304 304 303 303 304 304 304 304 303 303 305 306 305 305 305 304 301 298 296 294 294 293 295 296 294 290 288 287 283 279 280 284 288 293 297 298 297 296 296 298 302 308 314 320 326 331 337 344 344 324 294 273 263 258 247
294 293 287 279 274 272 272 275 281 285 285 284 286 288 290 292 292 292 293 293 294 295 298 299 300 301 302 303 303 303 303 303 302 302 302 302 303 303 302 301 302 303 303 304 304 303 300 299 298 298 297 296 296 295 291 288 287 285 279 275 278 282 287 292 296 298 298 297 297 299 303 308 314 320 326 331 336 343 348 335 297 278 270 259 245
292 288 279 273 271 271 273 279 284 284 284 287 290 290 291 292 293 294 295 296 297 299 300 301 301 302 302 303 303 303 303 302 301 301 301 302 303 303 303 301 300 299 300 301 301 301 299 298 298 299 298 297 295 291 287 286 285 282 275 272 275 281 287 291 295 298 299 298 298 299 302 307 313 319 325 331 335 341 349 350 318 294 286 259 234
289 282 277 275 274 274 277 282 285 285 288 291 292 292 292 292 294 296 297 297 298 299 300 301 301 302 302 303 303 303 302 301 300 300 300 301 303 304 303 300 298 297 297 298 299 299 298 297 297 297 297 296 295 290 285 283 283 279 272 270 274 281 286 290 295 298 299 299 299 299 302 308 313 319 324 330 334 339 348 358 352 328 317 252 216
281 279 278 277 276 278 282 286 288 289 290 291 292 291 292 293 295 296 296 296 297 298 299 301 301 301 302 303 303 302 301 299 299 300 300 302 304 304 303 300 297 295 295 296 297 298 297 296 294 294 294 296 298 294 287 282 280 277 273 272 276 281 286 290 295 298 299 299 299 300 303 307 313 317 322 327 332 338 347 358 5 359 352 295 207
278 280 281 280 281 283 286 287 288 289 291 292 293 293 294 294 294 294 295 296 297 298 299 299 299 300 302 303 303 301 299 299 299 300 301 302 303 304 303 300 296 294 294 295 296 296 295 294 292 290 289 294 299 297 289 282 279 278 276 276 278 281 284 289 293 295 297 298 298 299 301 304 310 315 319 324 332 338 346 356 8 13 8 355 205
282 283 284 284 286 287 287 287 289 291 294 295 295 295 295 294 293 294 296 297 297 297 298 298 299 301 302 302 300 298 297 298 299 300 301 302 302 302 301 298 295 294 293 294 294 294 293 293 291 289 287 289 294 296 291 284 280 279 278 278 279 281 283 286 290 292 294 296 297 297 300 302 307 313 317 322 330 337 343 351 1 12 20 23 205
284 284 285 286 287 287 288 290 292 294 295 295 295 295 295 295 295 296 297 296 295 296 296 297 299 301 301 300 297 295 296 297 298 299 300 301 300 300 299 296 294 293 292 293 293 292 290 288 287 287 286 286 290 293 292 286 282 280 279 278 279 280 281 284 287 289 290 293 295 295 298 302 306 311 317 322 327 334 341 348 355 4 18 30 190
284 284 285 285 286 288 289 291 292 293 292 292 295 296 296 296 297 297 297 296 295 295 296 297 298 299 298 296 294 294 295 297 298 298 299 299 299 298 297 295 293 291 291 292 291 289 286 283 283 284 285 286 288 291 292 291 287 282 279 278 279 281 282 283 285 286 288 291 293 294 298 303 307 311 317 322 325 330 337 345 351 358 8 19 38
282 282 283 284 286 287 288 288 288 286 285 288 294 297 298 298 298 298 296 295 294 294 295 296 296 296 294 293 292 293 295 297 297 298 298 298 298 297 295 293 291 290 291 292 290 286 283 281 282 284 284 285 287 289 292 294 292 286 281 280 280 283 284 283 284 286 287 289 292 295 298 303 307 311 315 319 323 327 332 340 347 353 359 7 17
280 280 282 284 285 285 284 284 283 282 283 288 293 296 297 298 298 296 295 293 292 293 294 294 294 293 292 291 290 292 294 296 296 296 297 296 296 295 293 292 290 290 290 291 289 286 283 282 283 285 284 284 286 289 292 294 293 289 285 283 283 284 285 284 284 286 287 289 292 296 299 302 306 310 313 317 321 324 327 332 340 347 351 357 5
280 282 283 285 285 282 280 280 281 283 285 289 291 293 294 294 294 292 291 291 291 292 292 292 292 292 291 290 289 291 293 294 295 294 294 293 292 291 290 290 289 289 288 288 288 288 286 285 285 285 284 282 283 286 289 291 291 289 286 285 284 283 283 282 282 283 285 288 292 295 298 301 303 306 310 314 317 320 323 326 332 340 346 350 356
281 283 285 285 284 282 281 281 283 285 286 288 290 291 291 291 290 290 290 290 291 291 291 291 291 291 290 290 291 292 293 293 292 291 291 289 288 288 288 288 288 288 287 287 287 286 285 284 283 283 283 281 280 281 284 286 286 284 282 281 280 280 280 280 281 281 284 287 291 293 296 298 300 303 306 309 312 315 319 321 323 330 338 343 346
281 283 283 284 284 285 286 287 287 288 289 290 291 291 291 290 289 289 289 290 290 290 290 290 290 290 291 291 291 291 291 291 290 289 287 286 285 285 286 286 287 287 287 287 287 286 285 284 283 282 282 282 283 284 284 283 281 279 276 275 275 276 277 279 280 282 284 287 290 292 294 295 298 300 302 305 308 310 312 316 318 320 327 335 339
281 283 284 285 286 288 288 289 290 290 291 292 291 291 290 290 289 289 288 288 289 289 290 290 290 291 291 290 290 290 290 289 288 287 286 284 284 283 283 284 285 286 286 285 285 285 285 285 285 283 283 283 284 286 285 282 279 276 274 272 271 272 274 277 279 282 284 286 289 291 292 293 295 298 299 301 304 306 307 310 313 314 316 322 330
284 285 285 286 287 287 288 289 289 290 290 290 291 291 290 289 288 287 287 288 289 290 291 291 291 291 290 289 289 290 289 288 287 286 284 283 282 282 282 283 284 284 284 283 283 283 284 284 284 284 283 283 283 284 284 282 280 278 276 275 274 274 274 276 279 281 283 285 287 289 291 292 294 296 298 299 300 303 304 306 308 310 311 312 315
284 284 284 285 285 286 287 288 288 289 290 291 290 290 289 288 288 288 290 291 292 292 292 291 290 289 289 289 289 289 288 287 285 283 282 281 280 280 281 282 282 282 282 281 281 281 281 282 282 282 282 283 283 283 284 284 283 282 281 280 279 278 277 277 279 280 281 283 284 286 288 290 291 293 295 297 297 299 301 302 302 304 306 306 306
283 282 283 283 284 285 287 288 289 289 290 289 288 287 288 289 291 292 293 293 293 292 291 290 289 289 289 289 289 288 287 285 284 282 281 279 278 278 279 279 280 280 280 280 280 280 281 282 282 282 282 283 283 283 283 283 283 283 282 281 280 279 279 278 279 280 281 282 283 284 285 287 289 290 291 293 294 295 297 298 298 299 299 299 299
279 280 281 282 284 286 287 288 288 287 285 284 286 288 291 293 294 295 294 293 292 291 291 290 290 290 289 289 289 288 286 285 284 284 282 280 278 277 278 278 279 280 281 281 281 281 281 282 282 282 281 281 281 281 282 282 282 283 282 281 279 279 279 279 280 281 282 282 282 283 283 284 285 287 288 289 290 291 292 292 293 293 294 294 293
278 280 281 283 285 286 286 286 285 283 284 286 290 293 295 296 296 295 295 294 293 292 291 291 290 290 289 289 289 288 287 287 286 286 285 283 281 279 279 280 280 281 281 281 281 281 281 281 281 281 280 280 280 280 281 281 282 283 283 282 281 280 279 279 279 280 281 282 282 282 282 282 283 284 285 285 286 286 287 287 287 287 288 288 288
279 281 283 285 285 285 285 285 286 287 289 292 295 296 297 297 297 296 296 295 293 292 291 291 291 291 291 290 290 289 288 287 286 287 286 285 282 280 280 281 281 282 282 281 281 281 281 281 281 281 280 280 280 280 280 280 281 281 281 282 282 282 281 280 280 280 280 281 281 282 282 282 282 283 283 282 282 282 282 282 282 281 282 282 282
281 283 284 285 286 285 286 288 289 291 293 295 296 297 297 297 297 297 295 294 293 292 292 292 292 291 291 290 289 288 287 286 285 286 286 285 283 282 282 283 283 283 282 282 282 281 281 281 281 280 280 280 280 280 280 280 281 281 280 281 281 282 282 283 283 283 283 282 282 282 282 281 281 281 280 279 279 279 278 277 276 276 276 276 276
282 283 283 284 285 286 288 289 291 293 295 296 296 297 298 298 297 296 295 294 294 294 293 292 291 289 289 288 288 288 288 287 287 287 288 288 288 287 286 285 285 284 283 283 283 282 282 282 281 281 280 280 281 281 282 282 281 281 281 281 281 281 282 282 283 284 285 285 283 283 282 281 280 279 278 277 277 276 274 273 273 272 271 271 271
Height
5883 5882 5881 5880 5879 5879 5878 5877 5877 5876 5874 5873 5872 5871 5870 5869 5868 5867 5866 5865 5864 5863 5861 5860 5858 5857 5856 5854 5853 5852 5850 5849 5846 5844 5842 5840 5838 5836 5834 5832 5829 5827 5824 5822 5820 5818 5815 5813 5811 5809 5807 5804 5802 5799 5797 5794 5792 5789 5787 5786 5784 5782 5781 5781 5780 5780 5779 5775 5773 5771 5769 5769 5768 5767 5767 5768 5767 5766 5767 5768 5770 5772 5774 5776 5777
5880 5879 5878 5877 5876 5875 5874 5874 5873 5872 5871 5870 5869 5868 5866 5865 5864 5863 5863 5862 5861 5859 5858 5856 5855 5853 5852 5851 5849 5848 5847 5845 5842 5840 5839 5837 5835 5832 5830 5828 5825 5823 5820 5818 5816 5814 5811 5809 5806 5804 5802 5800 5797 5795 5793 5790 5788 5785 5783 5782 5780 5778 5777 5776 5775 5775 5775 5772 5769 5767 5765 5763 5763 5762 5762 5762 5762 5761 5761 5761 5762 5765 5768 5769 5771
5877 5876 5875 5874 5872 5871 5871 5871 5870 5869 5868 5867 5866 5864 5863 5862 5861 5860 5859 5858 5857 5856 5854 5852 5851 5850 5848 5847 5846 5845 5843 5841 5839 5837 5836 5834 5831 5829 5826 5824 5821 5819 5816 5814 5811 5809 5807 5805 5803 5800 5798 5795 5793 5791 5789 5787 5784 5782 5779 5778 5776 5775 5772 5771 5770 5769 5769 5768 5765 5762 5760 5759 5758 5757 5756 5757 5757 5756 5756 5755 5755 5757 5761 5763 5765
5874 5874 5872 5870 5869 5868 5868 5867 5866 5865 5865 5864 5862 5861 5860 5858 5857 5856 5856 5855 5854 5852 5850 5849 5847 5846 5845 5844 5843 5841 5840 5838 5836 5834 5832 5830 5827 5825 5822 5820 5817 5814 5812 5810 5807 5805 5803 5801 5798 5796 5794 5791 5789 5787 5785 5783 5780 5778 5775 5773 5772 5771 5768 5766 5765 5764 5763 5763 5761 5758 5756 5755 5753 5752 5751 5752 5751 5750 5750 5750 5749 5750 5752 5755 5758
5870 5869 5868 5866 5866 5865 5864 5863 5863 5862 5861 5860 5859 5857 5856 5855 5854 5853 5852 5851 5850 5849 5847 5845 5844 5843 5842 5841 5840 5838 5836 5835 5833 5831 5828 5826 5823 5821 5818 5816 5813 5810 5807 5805 5803 5801 5799 5796 5794 5792 5790 5788 5785 5783 5781 5779 5776 5774 5771 5769 5767 5766 5764 5761 5760 5759 5757 5756 5756 5754 5752 5750 5749 5746 5745 5745 5746 5745 5744 5744 5743 5743 5745 5748 5751
5867 5865 5864 5863 5863 5861 5861 5860 5859 5858 5857 5856 5854 5853 5852 5851 5851 5850 5849 5847 5846 5845 5843 5842 5841 5839 5839 5838 5837 5835 5833 5831 5829 5827 5824 5821 5819 5816 5813 5811 5808 5805 5803 5800 5798 5797 5794 5792 5789 5787 5785 5783 5781 5779 5777 5774 5772 5770 5767 5765 5763 5761 5759 5757 5755 5754 5752 5751 5750 5749 5747 5745 5743 5741 5739 5739 5739 5738 5738 5738 5737 5736 5737 5740 5743
5864 5861 5860 5860 5859 5858 5857 5856 5855 5854 5853 5852 5850 5849 5849 5848 5847 5847 5845 5844 5842 5841 5839 5839 5838 5837 5836 5835 5834 5832 5829 5827 5824 5821 5819 5816 5814 5811 5808 5805 5803 5800 5798 5796 5794 5792 5789 5787 5785 5783 5781 5779 5777 5775 5773 5770 5767 5765 5763 5760 5758 5756 5754 5753 5751 5749 5748 5746 5744 5743 5742 5740 5738 5736 5734 5732 5732 5731 5730 5731 5731 5730 5730 5732 5735
5861 5859 5857 5856 5855 5854 5852 5851 5850 5849 5848 5847 5846 5846 5846 5845 5844 5842 5841 5840 5838 5837 5837 5836 5835 5834 5833 5831 5829 5827 5825 5822 5819 5816 5813 5811 5809 5806 5803 5800 5797 5795 5793 5791 5789 5787 5785 5783 5781 5779 5777 5775 5773 5770 5768 5765 5763 5760 5758 5756 5754 5752 5749 5748 5746 5744 5743 5741 5739 5737 5736 5734 5732 5730 5728 5726 5725 5724 5722 5723 5724 5723 5722 5724 5727
5857 5856 5854 5852 5851 5849 5847 5846 5845 5844 5844 5844 5843 5843 5842 5840 5839 5838 5837 5836 5835 5834 5833 5833 5832 5830 5828 5826 5824 5822 5820 5817 5814 5812 5809 5806 5804 5801 5798 5794 5792 5790 5788 5786 5784 5782 5780 5779 5777 5775 5773 5770 5768 5765 5763 5760 5758 5756 5753 5751 5749 5747 5745 5743 5741 5739 5738 5737 5735 5732 5730 5728 5727 5725 5723 5720 5719 5718 5716 5715 5716 5716 5715 5717 5719
5853 5852 5850 5849 5846 5843 5841 5841 5840 5840 5841 5840 5839 5839 5838 5837 5836 5835 5834 5833 5832 5831 5830 5829 5828 5826 5824 5822 5819 5816 5814 5812 5810 5808 5805 5802 5799 5796 5792 5789 5787 5785 5783 5782 5780 5778 5776 5774 5772 5771 5768 5766 5763 5761 5758 5755 5753 5751 5748 5746 5744 5742 5740 5738 5736 5734 5733 5732 5729 5727 5725 5723 5721 5719 5717 5715 5713 5711 5709 5707 5707 5708 5708 5710 5712
5849 5847 5845 5843 5839 5836 5835 5835 5835 5836 5837 5836 5836 5835 5835 5834 5833 5833 5831 5830 5829 5827 5826 5824 5823 5822 5820 5818 5815 5812 5809 5807 5805 5803 5800 5798 5796 5792 5788 5785 5782 5780 5779 5778 5776 5773 5771 5770 5768 5766 5764 5761 5759 5756 5753 5751 5748 5746 5743 5741 5739 5737 5735 5733 5731 5729 5728 5727 5724 5721 5719 5717 5715 5713 5711 5709 5707 5705 5702 5700 5700 5700 5700 5702 5705
5844 5842 5839 5835 5832 5831 5830 5830 5831 5832 5832 5832 5832 5832 5832 5831 5831 5829 5827 5826 5825 5823 5822 5820 5818 5817 5816 5814 5812 5809 5805 5803 5801 5799 5796 5794 5792 5789 5785 5782 5779 5777 5775 5774 5772 5770 5768 5766 5763 5761 5759 5756 5754 5751 5748 5745 5743 5740 5738 5736 5734 5732 5729 5727 5725 5724 5722 5721 5719 5716 5713 5711 5709 5707 5704 5702 5700 5698 5696 5694 5692 5692 5693 5694 5696
5838 5834 5830 5826 5825 5825 5825 5827 5827 5827 5827 5827 5828 5829 5828 5828 5827 5825 5823 5821 5820 5818 5817 5815 5814 5812 5811 5810 5808 5805 5803 5800 5797 5795 5792 5790 5788 5785 5782 5779 5776 5774 5772 5770 5769 5766 5764 5762 5759 5756 5754 5751 5749 5746 5743 5740 5738 5735 5733 5731 5729 5726 5724 5722 5720 5718 5717 5715 5713 5711 5708 5706 5704 5701 5698 5695 5693 5691 5690 5688 5685 5684 5685 5686 5688
5832 5830 5828 5826 5825 5825 5824 5825 5824 5823 5823 5823 5824 5825 5824 5824 5822 5820 5818 5816 5815 5814 5812 5811 5809 5808 5806 5805 5803 5800 5798 5796 5793 5790 5788 5785 5782 5780 5778 5774 5772 5770 5768 5766 5764 5762 5760 5758 5756 5752 5749 5746 5744 5741 5738 5735 5733 5730 5727 5725 5723 5721 5719 5716 5714 5713 5711 5709 5708 5706 5703 5700 5698 5695 5692 5688 5686 5683 5682 5681 5679 5676 5677 5678 5680
5827 5828 5829 5828 5826 5825 5824 5821 5820 5819 5819 5818 5820 5821 5820 5819 5818 5815 5813 5811 5810 5809 5808 5806 5805 5803 5801 5799 5797 5794 5792 5790 5787 5785 5782 5780 5777 5775 5772 5770 5768 5766 5764 5762 5759 5757 5756 5754 5752 5748 5745 5742 5739 5736 5733 5731 5728 5725 5723 5720 5718 5716 5714 5711 5709 5707 5705 5703 5702 5700 5697 5695 5692 5689 5686 5682 5680 5677 5674 5673 5672 5670 5670 5671 5673
5823 5823 5824 5822 5820 5820 5819 5816 5814 5815 5815 5814 5816 5817 5816 5815 5813 5810 5808 5807 5806 5805 5803 5802 5800 5798 5796 5794 5791 5788 5786 5783 5782 5779 5776 5774 5771 5769 5767 5765 5763 5761 5759 5756 5754 5752 5751 5749 5747 5744 5740 5737 5734 5731 5728 5726 5723 5720 5718 5716 5714 5712 5709 5706 5704 5702 5700 5698 5696 5694 5691 5689 5686 5683 5680 5676 5673 5670 5667 5666 5665 5663 5663 5664 5665
5817 5816 5816 5815 5814 5815 5815 5812 5810 5810 5810 5811 5813 5812 5811 5809 5807 5805 5803 5802 5801 5800 5799 5797 5794 5792 5790 5788 5785 5783 5779 5777 5775 5774 5771 5768 5766 5764 5762 5760 5758 5756 5753 5751 5749 5747 5745 5743 5741 5739 5735 5732 5729 5726 5723 5721 5718 5715 5713 5711 5709 5707 5704 5701 5699 5697 5695 5693 5690 5688 5686 5683 5681 5678 5674 5669 5665 5662 5659 5658 5658 5657 5656 5656 5658
5814 5812 5810 5809 5809 5810 5809 5807 5806 5807 5808 5809 5809 5807 5805 5803 5801 5800 5799 5797 5796 5796 5794 5792 5789 5787 5785 5782 5780 5778 5775 5772 5770 5768 5766 5763 5761 5758 5756 5754 5752 5750 5748 5746 5744 5741 5739 5737 5735 5733 5730 5726 5723 5720 5718 5716 5713 5710 5708 5706 5705 5702 5700 5697 5695 5693 5690 5688 5685 5683 5680 5677 5675 5672 5668 5663 5659 5655 5652 5650 5650 5650 5650 5649 5649
5813 5810 5805 5802 5802 5803 5802 5802 5803 5805 5806 5806 5804 5802 5799 5798 5796 5795 5794 5793 5792 5791 5789 5787 5785 5782 5780 5778 5775 5773 5771 5768 5765 5763 5761 5758 5756 5753 5751 5748 5746 5744 5742 5740 5738 5734 5732 5730 5728 5726 5723 5720 5718 5715 5713 5711 5708 5705 5704 5702 5700 5698 5696 5693 5691 5689 5687 5684 5681 5678 5675 5672 5669 5666 5663 5659 5655 5650 5647 5644 5643 5643 5643 5642 5642
5809 5805 5801 5798 5796 5795 5796 5799 5800 5802 5803 5801 5798 5796 5794 5793 5792 5791 5790 5789 5787 5785 5783 5781 5779 5777 5775 5774 5771 5769 5767 5763 5760 5758 5756 5753 5751 5748 5745 5743 5740 5738 5736 5733 5731 5727 5725 5722 5721 5719 5717 5715 5712 5710 5708 5705 5703 5701 5700 5698 5696 5694 5691 5689 5687 5685 5683 5681 5678 5675 5672 5669 5666 5663 5660 5657 5652 5647 5643 5640 5637 5636 5635 5634 5635
5803 5801 5799 5797 5793 5792 5794 5796 5796 5797 5797 5794 5792 5791 5789 5788 5787 5786 5785 5783 5782 5780 5778 5776 5774 5772 5770 5769 5766 5763 5761 5758 5755 5752 5751 5749 5747 5744 5740 5737 5734 5732 5730 5726 5723 5720 5718 5716 5714 5712 5710 5708 5707 5704 5702 5700 5698 5697 5696 5693 5691 5689 5687 5685 5683 5681 5679 5677 5675 5672 5669 5667 5665 5661 5658 5654 5649 5644 5639 5635 5632 5629 5627 5627 5628
5798 5796 5794 5791 5789 5789 5791 5791 5790 5790 5789 5788 5787 5786 5784 5783 5782 5780 5779 5777 5776 5775 5774 5772 5770 5768 5765 5763 5761 5758 5754 5752 5750 5748 5746 5744 5741 5738 5735 5730 5726 5724 5723 5721 5717 5714 5713 5710 5708 5706 5704 5703 5701 5699 5696 5695 5694 5693 5691 5689 5687 5685 5683 5681 5679 5677 5675 5673 5671 5669 5666 5664 5662 5659 5655 5650 5644 5639 5635 5630 5627 5624 5621 5621 5622
5793 5791 5788 5786 5785 5786 5786 5784 5783 5782 5781 5781 5781 5780 5778 5777 5775 5774 5773 5772 5772 5771 5769 5768 5766 5764 5761 5758 5755 5752 5750 5748 5746 5744 5741 5738 5735 5732 5728 5725 5722 5719 5717 5714 5712 5709 5707 5705 5703 5701 5699 5697 5695 5693 5691 5690 5689 5688 5686 5684 5682 5681 5679 5677 5675 5673 5671 5669 5667 5665 5663 5661 5659 5655 5651 5646 5641 5636 5631 5626 5622 5619 5617 5617 5617
5787 5785 5782 5781 5781 5781 5780 5778 5777 5776 5775 5774 5774 5774 5772 5770 5769 5769 5768 5768 5768 5767 5765 5763 5761 5758 5755 5753 5750 5748 5745 5743 5741 5738 5736 5733 5730 5726 5722 5719 5717 5715 5711 5708 5706 5704 5702 5700 5698 5696 5694 5692 5690 5688 5686 5686 5685 5683 5681 5680 5678 5676 5675 5673 5671 5669 5668 5666 5664 5662 5660 5658 5655 5652 5647 5643 5637 5632 5627 5623 5619 5616 5614 5614 5614
5780 5778 5776 5776 5776 5777 5777 5774 5772 5771 5770 5770 5769 5768 5766 5765 5764 5764 5764 5764 5763 5762 5760 5758 5755 5752 5749 5747 5744 5742 5740 5737 5735 5732 5729 5727 5724 5721 5718 5715 5711 5708 5705 5703 5701 5699 5697 5695 5693 5691 5688 5687 5685 5683 5682 5681 5680 5678 5677 5675 5673 5672 5671 5669 5668 5666 5664 5662 5660 5659 5657 5654 5651 5648 5644 5639 5634 5628 5624 5620 5616 5614 5612 5611 5612
5774 5773 5771 5771 5772 5774 5774 5771 5769 5767 5765 5764 5763 5761 5761 5760 5760 5760 5760 5759 5758 5756 5753 5751 5748 5746 5744 5741 5739 5736 5733 5731 5728 5725 5723 5721 5718 5716 5714 5710 5705 5702 5700 5698 5696 5694 5692 5690 5688 5685 5683 5682 5680 5678 5677 5677 5675 5674 5672 5671 5669 5668 5667 5665 5664 5662 5660 5659 5657 5655 5653 5651 5648 5644 5640 5636 5630 5624 5619 5616 5613 5611 5610 5610 5611
5771 5769 5768 5768 5769 5770 5769 5766 5764 5762 5760 5759 5757 5756 5756 5756 5756 5756 5755 5754 5751 5749 5747 5745 5743 5741 5739 5736 5733 5730 5727 5724 5722 5720 5718 5716 5714 5712 5710 5705 5700 5698 5696 5693 5691 5689 5686 5684 5682 5680 5679 5677 5675 5674 5673 5672 5671 5669 5668 5667 5665 5664 5663 5662 5660 5659 5657 5655 5654 5652 5650 5648 5645 5642 5637 5633 5627 5621 5616 5613 5611 5610 5609 5609 5610
5768 5766 5765 5765 5765 5765 5763 5761 5759 5758 5756 5755 5753 5753 5752 5752 5752 5751 5750 5747 5745 5743 5741 5739 5737 5734 5732 5729 5727 5724 5721 5718 5716 5714 5713 5711 5709 5707 5705 5700 5697 5695 5692 5689 5687 5684 5681 5679 5677 5675 5674 5672 5671 5670 5669 5667 5666 5665 5664 5663 5662 5661 5660 5659 5657 5656 5654 5652 5651 5649 5647 5645 5642 5639 5635 5630 5625 5620 5615 5612 5610 5608 5608 5608 5609
5761 5760 5759 5759 5759 5758 5756 5755 5754 5752 5751 5750 5750 5749 5748 5747 5746 5745 5743 5741 5739 5737 5735 5733 5730 5727 5725 5722 5720 5718 5715 5713 5711 5708 5707 5705 5703 5701 5699 5696 5693 5691 5688 5685 5683 5680 5677 5674 5672 5671 5669 5668 5667 5666 5665 5663 5662 5661 5660 5659 5658 5657 5656 5655 5654 5652 5651 5649 5648 5646 5644 5642 5639 5636 5633 5628 5624 5619 5614 5611 5609 5608 5607 5607 5607
5755 5754 5753 5753 5752 5751 5749 5748 5747 5747 5746 5745 5745 5743 5742 5741 5740 5738 5736 5734 5732 5730 5728 5726 5723 5721 5718 5716 5714 5712 5710 5707 5705 5703 5700 5699 5697 5695 5693 5691 5689 5686 5683 5681 5679 5676 5673 5670 5668 5667 5665 5664 5663 5662 5661 5659 5658 5657 5656 5655 5654 5654 5653 5652 5651 5649 5648 5646 5645 5643 5642 5640 5637 5634 5631 5627 5623 5618 5614 5610 5608 5606 5606 5605 5605
5750 5748 5748 5747 5746 5745 5744 5742 5741 5741 5740 5739 5738 5736 5735 5733 5732 5730 5729 5727 5725 5723 5721 5719 5717 5715 5713 5710 5708 5706 5703 5701 5699 5696 5694 5693 5691 5690 5688 5686 5683 5681 5678 5676 5674 5672 5669 5666 5664 5663 5661 5660 5659 5658 5656 5655 5654 5653 5652 5652 5651 5651 5650 5649 5648 5646 5645 5643 5642 5641 5639 5637 5635 5632 5629 5626 5622 5618 5614 5610 5607 5606 5604 5603 5603
5745 5743 5743 5742 5741 5740 5739 5737 5736 5735 5733 5732 5731 5729 5727 5726 5724 5723 5722 5720 5718 5716 5715 5713 5711 5709 5707 5705 5702 5699 5697 5695 5693 5690 5689 5687 5686 5684 5682 5680 5678 5676 5674 5671 5669 5667 5665 5662 5660 5659 5657 5656 5655 5653 5652 5651 5650 5649 5649 5648 5648 5647 5647 5646 5645 5644 5642 5641 5639 5638 5636 5634 5632 5630 5627 5625 5621 5618 5613 5609 5606 5604 5603 5601 5601
5740 5739 5738 5737 5735 5734 5733 5731 5730 5729 5727 5726 5724 5722 5721 5720 5719 5718 5716 5714 5712 5710 5708 5707 5705 5703 5701 5698 5696 5693 5691 5689 5687 5685 5683 5682 5680 5678 5676 5675 5672 5670 5668 5666 5665 5663 5661 5659 5657 5655 5654 5653 5651 5649 5648 5647 5646 5646 5645 5645 5645 5644 5644 5643 5642 5641 5639 5638 5637 5636 5634 5633 5630 5628 5626 5623 5621 5617 5613 5609 5605 5603 5602 5600 5601
5735 5733 5732 5730 5729 5728 5727 5726 5724 5723 5721 5719 5718 5716 5715 5714 5713 5712 5710 5708 5706 5704 5702 5700 5698 5697 5694 5692 5690 5687 5685 5683 5681 5679 5678 5676 5674 5673 5671 5669 5667 5665 5663 5662 5660 5658 5656 5654 5653 5652 5650 5649 5648 5646 5644 5644 5643 5643 5642 5642 5641 5641 5640 5640 5639 5638 5637 5636 5635 5634 5632 5631 5629 5627 5624 5622 5619 5616 5612 5608 5605 5603 5601 5600 5600
5729 5727 5726 5724 5723 5722 5721 5719 5718 5716 5715 5713 5712 5710 5709 5708 5707 5706 5704 5702 5700 5698 5696 5694 5692 5690 5688 5686 5684 5682 5680 5678 5676 5674 5672 5671 5669 5668 5666 5665 5662 5661 5659 5658 5656 5654 5652 5651 5649 5648 5647 5646 5645 5643 5641 5641 5640 5640 5639 5639 5638 5638 5637 5637 5636 5635 5634 5633 5632 5632 5631 5629 5628 5625 5623 5621 5618 5615 5612 5609 5605 5603 5601 5600 5600
5723 5722 5720 5718 5717 5715 5714 5713 5711 5710 5708 5707 5705 5704 5704 5703 5702 5700 5698 5697 5695 5692 5690 5688 5685 5684 5682 5681 5679 5677 5675 5673 5671 5669 5667 5666 5664 5663 5662 5660 5658 5656 5655 5653 5652 5650 5649 5647 5645 5644 5643 5642 5641 5640 5638 5637 5637 5637 5636 5636 5635 5635 5635 5634 5633 5633 5632 5631 5630 5630 5629 5628 5626 5624 5622 5620 5618 5615 5613 5610 5607 5604 5602 5600 5600
5717 5715 5714 5712 5711 5709 5708 5707 5705 5704 5703 5701 5700 5699 5699 5698 5697 5695 5692 5690 5688 5686 5683 5681 5679 5678 5677 5675 5673 5672 5670 5668 5666 5664 5662 5661 5659 5658 5656 5655 5653 5651 5650 5649 5648 5646 5644 5643 5642 5641 5640 5639 5638 5637 5636 5635 5634 5634 5633 5633 5632 5632 5632 5631 5631 5630 5629 5629 5628 5628 5627 5625 5624 5622 5621 5619 5617 5615 5612 5610 5608 5605 5603 5601 5600
5709 5708 5707 5706 5705 5703 5702 5701 5700 5698 5697 5696 5695 5694 5693 5692 5690 5688 5685 5683 5681 5679 5677 5675 5674 5672 5671 5670 5668 5666 5665 5663 5661 5659 5657 5656 5654 5653 5651 5649 5648 5647 5646 5645 5643 5641 5640 5639 5638 5637 5636 5635 5635 5634 5633 5632 5631 5631 5630 5630 5630 5629 5629 5629 5628 5627 5627 5626 5626 5625 5625 5623 5622 5621 5619 5618 5616 5614 5612 5610 5608 5606 5604 5602 5601
5702 5701 5700 5699 5699 5698 5697 5696 5694 5693 5692 5691 5690 5688 5686 5684 5683 5681 5679 5677 5675 5673 5671 5669 5668 5667 5666 5664 5663 5662 5660 5658 5655 5653 5652 5651 5650 5648 5646 5645 5644 5643 5642 5641 5639 5638 5636 5635 5634 5633 5632 5632 5631 5631 5630 5629 5629 5628 5628 5627 5627 5627 5627 5626 5626 5625 5624 5624 5624 5623 5622 5621 5620 5619 5618 5617 5616 5614 5612 5610 5609 5607 5605 5604 5602
5695 5695 5694 5693 5692 5692 5691 5690 5689 5688 5687 5685 5684 5682 5680 5678 5676 5674 5672 5671 5669 5667 5665 5664 5662 5661 5660 5659 5658 5657 5655 5653 5651 5649 5648 5647 5645 5644 5643 5641 5640 5639 5638 5637 5636 5634 5633 5632 5631 5630 5629 5629 5628 5628 5627 5626 5626 5626 5625 5625 5624 5624 5624 5624 5623 5623 5622 5622 5621 5621 5620 5619 5619 5618 5617 5616 5615 5613 5612 5610 5609 5607 5606 5605 5603
5690 5689 5688 5687 5686 5686 5685 5684 5684 5682 5681 5679 5677 5675 5673 5671 5669 5667 5666 5664 5663 5661 5660 5658 5657 5656 5655 5654 5653 5651 5650 5648 5647 5645 5643 5642 5641 5640 5639 5637 5636 5635 5634 5633 5632 5631 5630 5629 5628 5627 5626 5626 5625 5624 5624 5623 5623 5623 5623 5622 5622 5622 5621 5621 5621 5620 5620 5619 5619 5618 5618 5617 5617 5616 5615 5614 5613 5612 5611 5610 5608 5607 5606 5605 5604
5684 5683 5682 5681 5681 5680 5679 5678 5677 5675 5674 5672 5670 5668 5666 5664 5662 5661 5659 5658 5657 5656 5654 5653 5652 5651 5650 5649 5647 5646 5644 5643 5642 5641 5639 5638 5637 5636 5635 5633 5632 5631 5630 5629 5628 5627 5626 5625 5625 5624 5623 5622 5622 5621 5621 5620 5620 5620 5620 5619 5619 5619 5619 5618 5618 5618 5617 5617 5616 5616 5615 5615 5615 5614 5613 5613 5612 5611 5610 5609 5608 5607 5606 5605 5604
5677 5676 5676 5675 5674 5673 5672 5671 5669 5668 5666 5665 5663 5662 5660 5658 5656 5654 5653 5652 5651 5650 5649 5648 5647 5646 5645 5643 5642 5641 5639 5638 5637 5636 5635 5633 5632 5631 5630 5629 5628 5627 5626 5625 5624 5623 5622 5622 5621 5621 5620 5619 5619 5618 5618 5617 5617 5616 5616 5616 5616 5616 5616 5615 5615 5615 5615 5614 5614 5613 5613 5613 5612 5612 5611 5611 5610 5609 5609 5608 5607 5606 5605 5605 5604
5671 5670 5669 5668 5667 5666 5665 5664 5662 5661 5660 5658 5657 5656 5654 5652 5651 5649 5648 5647 5646 5645 5644 5643 5642 5640 5639 5638 5637 5636 5634 5633 5632 5631 5630 5629 5628 5627 5626 5625 5624 5623 5622 5621 5621 5620 5619 5619 5618 5617 5617 5616 5616 5615 5615 5614 5614 5613 5613 5613 5613 5613 5613 5612 5612 5612 5612 5612 5611 5611 5611 5610 5610 5609 5609 5609 5608 5607 5607 5606 5606 5605 5605 5604 5603
5664 5663 5663 5662 5661 5660 5659 5657 5656 5654 5653 5652 5651 5650 5648 5647 5646 5645 5644 5643 5642 5641 5639 5638 5636 5635 5634 5633 5632 5631 5629 5628 5627 5626 5625 5624 5623 5622 5622 5621 5620 5619 5618 5618 5617 5617 5616 5615 5615 5614 5614 5613 5612 5612 5612 5611 5611 5611 5610 5610 5610 5610 5609 5609 5609 5609 5609 5609 5609 5608 5608 5608 5608 5607 5607 5606 5606 5605 5604 5604 5604 5604 5603 5603 5603
5658 5657 5656 5656 5655 5654 5652 5651 5649 5648 5648 5647 5646 5645 5644 5643 5642 5640 5639 5638 5636 5635 5634 5633 5631 5630 5629 5628 5627 5626 5624 5623 5621 5621 5621 5620 5619 5618 5618 5617 5616 5615 5615 5614 5614 5613 5613 5612 5612 5611 5610 5610 5609 5609 5609 5608 5608 5608 5607 5607 5607 5607 5606 5606 5606 5606 5606 5606 5606 5606 5605 5605 5605 5605 5604 5604 5603 5603 5602 5602 5602 5602 5602 5602 5601
5652 5651 5650 5650 5649 5648 5647 5645 5644 5643 5642 5641 5641 5640 5639 5638 5637 5635 5634 5633 5631 5630 5629 5627 5626 5625 5624 5623 5622 5621 5619 5617 5616 5616 5616 5616 5615 5614 5613 5613 5612 5611 5611 5610 5610 5609 5609 5609 5608 5608 5607 5606 5606 5606 5605 5605 5605 5604 5604 5604 5604 5604 5603 5603 5603 5602 5602 5602 5602 5602 5602 5602 5602 5602 5601 5601 5601 5600 5600 5599 5599 5599 5599 5600 5600
5646 5645 5645 5644 5643 5642 5641 5640 5639 5638 5637 5636 5636 5635 5634 5633 5631 5630 5629 5628 5626 5625 5624 5622 5621 5621 5620 5619 5618 5616 5614 5613 5612 5612 5611 5611 5611 5610 5609 5609 5608 5608 5607 5607 5606 5606 5605 5605 5604 5604 5603 5603 5603 5602 5602 5602 5601 5601 5601 5600 5600 5600 5600 5600 5599 5599 5599 5599 5599 5599 5599 5599 5599 5599 5598 5598 5598 5598 5597 5597 5597 5597 5597 5597 5597
5640 5640 5639 5638 5638 5637 5636 5635 5634 5633 5632 5631 5630 5629 5628 5627 5626 5625 5624 5623 5622 5620 5619 5618 5617 5616 5615 5614 5613 5612 5610 5609 5608 5607 5607 5607 5607 5606 5605 5605 5605 5604 5603 5603 5602 5602 5602 5601 5601 5600 5600 5599 5599 5599 5598 5598 5598 5597 5597 5596 5596 5596 5596 5596 5596 5596 5595 5595 5595 5595 5595 5595 5595 5595 5595 5595 5595 5595 5595 5594 5594 5594 5594 5594 5595
5635 5634 5634 5633 5633 5632 5631 5630 5629 5628 5627 5626 5625 5624 5623 5622 5621 5620 5619 5618 5616 5615 5614 5613 5612 5611 5610 5609 5608 5608 5607 5605 5604 5603 5603 5604 5603 5602 5602 5601 5601 5600 5600 5599 5598 5598 5598 5598 5597 5596 5596 5595 5595 5595 5594 5594 5594 5593 5593 5592 5592 5592 5591 5591 5591 5591 5591 5591 5591 5591 5591 5591 5592 5592 5591 5592 5592 5592 5592 5591 5591 5591 5591 5592 5592
5630 5630 5629 5629 5629 5628 5627 5625 5624 5623 5622 5621 5620 5619 5618 5617 5616 5615 5613 5612 5611 5610 5609 5608 5607 5606 5605 5604 5603 5603 5602 5602 5601 5600 5599 5599 5599 5598 5598 5597 5597 5596 5595 5595 5594 5594 5594 5594 5593 5592 5592 5591 5591 5590 5590 5590 5589 5589 5589 5589 5588 5588 5588 5588 5588 5588 5588 5587 5587 5587 5587 5587 5588 5588 5588 5588 5588 5588 5588 5588 5588 5588 5588 5589 5589